This demonstration page uses our WeatherBlox Daily Observations layout. Learn more.

Left ArrowRight Arrow

34.74481, -87.66753

Hourly Observations for April 23, 2015

Temp ( °F °C ) Dew Point ( °F °C ) Humidity (%) Winds ( mph kmh ) Pressure ( in mb ) Visibility ( mi km ) Precip ( " mm )
12:53 am 00:53 Mostly Clear 58 14.4 51 10.6 78 78 Calm 29.98 1015 10 16 0.00 0.00
1:53 am 01:53 Clear 56 13.3 48 8.9 75 75 VRB 6 9 29.98 1015 10 16 0.00 0.00
2:53 am 02:53 Mostly Cloudy 56 13.3 44 6.7 65 65 Calm 29.99 1016 10 16 0.00 0.00
3:53 am 03:53 Partly Cloudy 55 12.8 42 5.6 62 62 Calm 30.00 1016 10 16 0.00 0.00
4:53 am 04:53 Mostly Cloudy 54 12.2 41 5 62 62 ENE 6 9 30.01 1016 10 16 0.00 0.00
5:53 am 05:53 Mostly Cloudy 53 11.7 37 2.8 55 55 ENE 7 11 30.04 1017 10 16 0.00 0.00
6:53 am 06:53 Sunny 52 11.1 32 0 47 47 ENE 7 11 30.06 1018 10 16 0.00 0.00
7:53 am 07:53 Sunny 52 11.1 34 1.1 50 50 ENE 7 11 30.09 1019 10 16 0.00 0.00
8:53 am 08:53 Sunny 53 11.7 35 1.7 51 51 undefined N/A 30.09 1019 10 16 0.00 0.00
9:53 am 09:53 Mostly Sunny 55 12.8 33 0.6 44 44 E 8 13 30.12 1020 10 16 0.00 0.00
10:53 am 10:53 Sunny 57 13.9 34 1.1 42 42 ENE 7 11 30.12 1020 10 16 0.00 0.00
11:53 am 11:53 Mostly Sunny 58 14.4 34 1.1 41 41 E 6 9 30.11 1020 10 16 0.00 0.00
12:53 pm 12:53 Partly Cloudy 60 15.6 33 0.6 36 36 E 6 9 30.09 1019 10 16 0.00 0.00
1:53 pm 13:53 Partly Cloudy 64 17.8 35 1.7 34 34 VRB 7 11 30.07 1018 10 16 0.00 0.00
2:53 pm 14:53 Sunny 67 19.4 37 2.8 33 33 VRB 7 11 30.04 1017 10 16 0.00 0.00
3:53 pm 15:53 Sunny 67 19.4 35 1.7 31 31 NNE 5 7 30.02 1017 10 16 0.00 0.00
4:53 pm 16:53 Sunny 69 20.6 40 4.4 35 35 Calm 30.02 1017 10 16 0.00 0.00
5:53 pm 17:53 Sunny 67 19.4 40 4.4 37 37 Calm 30.02 1017 10 16 0.00 0.00
6:53 pm 18:53 Sunny 62 16.7 49 9.4 62 62 Calm 30.01 1016 10 16 0.00 0.00
7:53 pm 19:53 Clear 58 14.4 44 6.7 60 60 Calm 30.02 1017 10 16 0.00 0.00
8:53 pm 20:53 Clear 55 12.8 47 8.3 74 74 Calm 30.04 1017 10 16 0.00 0.00
9:53 pm 21:53 Clear 53 11.7 46 7.8 77 77 Calm 30.05 1018 10 16 0.00 0.00
10:53 pm 22:53 Clear 52 11.1 44 6.7 75 75 Calm 30.06 1018 10 16 0.00 0.00
11:53 pm 23:53 Clear 51 10.6 45 7.2 80 80 Calm 30.07 1018 10 16 0.00 0.00

Powered by AerisWeather